Content
SEND FEEDBACK

Daily
Averages
Monthly
Summary
United States of America

CHESTERFIELD, MISSOURI


Home > North America > United States > Missouri
Elevation: 559 feet     Latitude: 38 41N     Longitude: 090 31W

WEATHER
 
SELECT A DAY
Number of Records: 203,439;   Date Range: 1/1/95 - 7/29/14
 
SHARE

PRINT THIS DATA

[ ← Previous Day ]
WEATHER ALMANAC - MARCH 19, 2013
[ Next Day → ]
[ °C ]   °F
Weather ElementAverageHighLow
Temperature38.5 °F46.9 °F (2:51 pm)30.9 °F (3:51 am)
Dewpoint17.1 °F19.9 °F (11:51 pm)14 °F (3:51 pm)
Humidity43.5 %61 % (3:51 am)27 % (3:51 pm)
Barometer30.18 in30.24 in (12:51 pm)30.06 in (1:51 am)
Wind Speed8.6 mph16.1 mph (6:51 am)
Wind Gust21.9 mph (10:51 am)
Weather ElementAverage
Visibility10 mi
Wind DirectionWNW (277 °)

Weather ElementTotal
Precipitation---
Heating Degree Days26.1 (Base 65)
Averaged from 23 records on March 19, 2013
WEATHER CONDITIONS BREAKOUT
WIND DIRECTION BREAKOUT
WEATHER BY HOUR - MARCH 19, 2013
[ °C ]   °F
Local TimeTemperatureDewpointHumidityBarometerVisibilityWind DirectionWind SpeedGust SpeedPrecipitationEventsConditions
1:51 AM33.1 °F18.0 °F54 %30.06 in10.0 miWNW (300°)6.9 mphClear
2:51 AM32.0 °F18.0 °F56 %30.08 in10.0 miWNW (300°)3.5 mphClear
3:51 AM30.9 °F19.0 °F61 %30.08 in10.0 miWSW (240°)6.9 mphClear
4:51 AM30.9 °F19.0 °F61 %30.09 in10.0 miWest (270°)4.6 mphPartly Cloudy
5:51 AM30.9 °F18.0 °F59 %30.10 in10.0 miNW (320°)4.6 mphClear
6:51 AM30.9 °F17.1 °F57 %30.12 in10.0 miWest (280°)16.1 mphPartly Cloudy
7:51 AM32.0 °F17.1 °F54 %30.13 in10.0 miWNW (290°)11.5 mphScattered Clouds
8:51 AM35.1 °F17.1 °F48 %30.15 in10.0 miNW (320°)15.0 mph20.7 mphScattered Clouds
9:51 AM37.0 °F17.1 °F44 %30.19 in10.0 miWNW (300°)10.4 mph20.7 mphScattered Clouds
10:51 AM39.0 °F17.1 °F41 %30.23 in10.0 miWest (280°)16.1 mph21.9 mphScattered Clouds
11:51 AM42.1 °F17.1 °F37 %30.23 in10.0 miWest (280°)13.8 mphMostly Cloudy
12:51 PM44.1 °F16.0 °F32 %30.24 in10.0 miWest (280°)13.8 mph18.4 mphMostly Cloudy
1:51 PM46.0 °F16.0 °F30 %30.24 in10.0 miWest (280°)16.1 mph20.7 mphMostly Cloudy
2:51 PM46.9 °F15.1 °F28 %30.22 in10.0 miNW (310°)8.1 mphMostly Cloudy
3:51 PM46.9 °F14.0 °F27 %30.21 in10.0 miNW (320°)10.4 mphOvercast
4:51 PM46.0 °F17.1 °F31 %30.22 in10.0 miWNW (290°)6.9 mphOvercast
5:51 PM46.0 °F16.0 °F30 %30.23 in10.0 miWNW (300°)6.9 mphOvercast
6:51 PM44.1 °F17.1 °F34 %30.23 in10.0 miNW (310°)4.6 mphMostly Cloudy
7:51 PM42.1 °F17.1 °F37 %30.23 in10.0 miNW (310°)4.6 mphMostly Cloudy
8:51 PM41.0 °F14.0 °F33 %30.22 in10.0 miCalmMostly Cloudy
9:51 PM37.0 °F18.0 °F46 %30.23 in10.0 miWest (270°)3.5 mphScattered Clouds
10:51 PM36.0 °F18.0 °F48 %30.22 in10.0 miWest (270°)5.8 mphPartly Cloudy
11:51 PM36.0 °F19.9 °F52 %30.22 in10.0 miWSW (250°)8.1 mphClear
Hourly data recorded from KSTL, located miles away from Chesterfield, Missouri







STORIES FROM OUR PARTNERS